Volver al catálogo

STARLINK-37767

ActivoComunicacionesVLEO
NORAD 69245·PAYLOAD·🇺🇸 United States

Lanzado May 29, 2026 desde Cape Canaveral Space Force Station

Loading…

Próximos Pases (próximas 24 horas)

TLE

ActualizadoSource: CelesTrak SupGP

Época: Sep 15, 2026, 03:04 UTC

1 69245C 26117H   26258.12826389 -.00075328  00000+0 -22257-2 0  2589
2 69245  53.1569 178.7889 0001282  83.1525 262.3546 15.34427025    14

Sigue STARLINK-37767 en tiempo real con AllMySat

Download on the App Store